SWR2DV EHAM-LSZH

Flight info

Callsign SWR2DV
Flight time 0h 55m
Altitude 35000
Route EDUPO Z739 MISGO DCT ASBON DCT TUSUK DCT LAMGO/N0377F270 T721 SUL/N0366F250 T721 RILAX
Aircraft A20N/M-SDE2E3FGHIRWXY/LB1

Departure

Time 2026-04-17 10:43
Airport Amsterdam Airport Schiphol (EHAM)

Arrival

Time 2026-04-17 11:38
Airport Zürich Airport (LSZH)
Time Latitude Longitude Altitude Speed Heading
2026-04-17 10:31 52.31001 4.77314 -2 ft 0 kts 182°
2026-04-17 10:37 52.31004 4.77314 -1 ft 2 kts 182°
2026-04-17 10:38 52.31020 4.77315 -1 ft 2 kts 182°
2026-04-17 10:38 52.31036 4.77316 -1 ft 2 kts 182°
2026-04-17 10:38 52.31053 4.77315 -1 ft 2 kts 150°
2026-04-17 10:38 52.31064 4.77296 -1 ft 2 kts 108°
2026-04-17 10:39 52.31066 4.77288 -1 ft 0 kts 96°
2026-04-17 10:40 52.31065 4.77364 -2 ft 11 kts 90°
2026-04-17 10:40 52.31045 4.77496 -1 ft 12 kts 112°
2026-04-17 10:40 52.31060 4.77619 -1 ft 12 kts 31°
2026-04-17 10:40 52.31154 4.77635 -1 ft 15 kts
2026-04-17 10:41 52.31272 4.77646 -1 ft 19 kts
2026-04-17 10:41 52.31412 4.77649 -1 ft 21 kts 351°
2026-04-17 10:41 52.31519 4.77559 -1 ft 14 kts 335°
2026-04-17 10:41 52.31585 4.77629 -1 ft 13 kts 80°
2026-04-17 10:42 52.31589 4.77722 -1 ft 0 kts 85°
2026-04-17 10:42 52.31593 4.77797 -1 ft 16 kts 85°
2026-04-17 10:42 52.31577 4.77940 0 ft 12 kts 144°
2026-04-17 10:42 52.31515 4.77959 1 ft 0 kts 181°
2026-04-17 10:43 52.31276 4.77938 -1 ft 79 kts 182°
2026-04-17 10:43 52.30465 4.77854 12 ft 149 kts 185°
2026-04-17 10:43 52.29402 4.77734 750 ft 156 kts 187°
2026-04-17 10:44 52.28300 4.77636 1775 ft 158 kts 187°
2026-04-17 10:44 52.27160 4.77789 2477 ft 180 kts 162°
2026-04-17 10:44 52.26113 4.79119 3061 ft 208 kts 129°
2026-04-17 10:44 52.25569 4.81446 3613 ft 235 kts 95°
2026-04-17 10:45 52.25548 4.84188 4464 ft 245 kts 92°
2026-04-17 10:45 52.25526 4.86998 5351 ft 255 kts 92°
2026-04-17 10:45 52.25469 4.90017 5910 ft 277 kts 94°
2026-04-17 10:45 52.25387 4.93227 6637 ft 287 kts 94°
2026-04-17 10:46 52.25297 4.96500 7590 ft 290 kts 94°
2026-04-17 10:46 52.25200 4.99822 8504 ft 296 kts 95°
2026-04-17 10:46 52.25100 5.03204 9444 ft 300 kts 94°
2026-04-17 10:46 52.24997 5.06637 10351 ft 306 kts 94°
2026-04-17 10:47 52.24890 5.10201 10863 ft 325 kts 94°
2026-04-17 10:47 52.24775 5.14020 11176 ft 349 kts 94°
2026-04-17 10:47 52.24653 5.18053 11783 ft 359 kts 94°
2026-04-17 10:47 52.24504 5.22151 12599 ft 364 kts 99°
2026-04-17 10:48 52.23891 5.26157 13404 ft 365 kts 114°
2026-04-17 10:48 52.22678 5.29792 14177 ft 366 kts 128°
2026-04-17 10:48 52.21187 5.33184 14859 ft 371 kts 129°
2026-04-17 10:48 52.19676 5.36632 15542 ft 377 kts 128°
2026-04-17 10:49 52.18151 5.40124 16220 ft 382 kts 128°
2026-04-17 10:49 52.16602 5.43676 16899 ft 387 kts 128°
2026-04-17 10:49 52.15033 5.47272 17562 ft 392 kts 128°
2026-04-17 10:49 52.13441 5.50918 18230 ft 398 kts 128°
2026-04-17 10:50 52.11826 5.54611 18831 ft 403 kts 128°
2026-04-17 10:50 52.10192 5.58342 19413 ft 407 kts 128°
2026-04-17 10:50 52.08540 5.62110 19999 ft 411 kts 128°
2026-04-17 10:50 52.06869 5.65914 20580 ft 415 kts 128°
2026-04-17 10:51 52.05071 5.69597 21139 ft 417 kts 134°
2026-04-17 10:51 52.03151 5.73168 21703 ft 422 kts 134°
2026-04-17 10:51 52.01209 5.76780 22258 ft 426 kts 134°
2026-04-17 10:51 51.99250 5.80426 22820 ft 431 kts 134°
2026-04-17 10:52 51.97271 5.84107 23344 ft 435 kts 134°
2026-04-17 10:52 51.95276 5.87828 23874 ft 440 kts 134°
2026-04-17 10:52 51.93262 5.91589 24330 ft 443 kts 134°
2026-04-17 10:52 51.91234 5.95373 24790 ft 446 kts 134°
2026-04-17 10:53 51.89188 5.99184 25231 ft 450 kts 134°
2026-04-17 10:53 51.87125 6.03019 25668 ft 454 kts 134°
2026-04-17 10:53 51.85043 6.06882 26099 ft 457 kts 134°
2026-04-17 10:53 51.82942 6.10757 26518 ft 460 kts 135°
2026-04-17 10:54 51.80818 6.14653 26946 ft 463 kts 135°
2026-04-17 10:54 51.78678 6.18570 27330 ft 467 kts 135°
2026-04-17 10:54 51.76523 6.22511 27729 ft 470 kts 135°
2026-04-17 10:54 51.74354 6.26472 28114 ft 473 kts 135°
2026-04-17 10:55 51.72165 6.30460 28492 ft 476 kts 135°
2026-04-17 10:55 51.69964 6.34466 28843 ft 479 kts 135°
2026-04-17 10:55 51.67753 6.38484 29188 ft 482 kts 135°
2026-04-17 10:55 51.65514 6.42546 29543 ft 485 kts 135°
2026-04-17 10:56 51.63268 6.46615 29862 ft 487 kts 135°
2026-04-17 10:56 51.61011 6.50699 30197 ft 490 kts 135°
2026-04-17 10:56 51.58738 6.54807 30514 ft 492 kts 135°
2026-04-17 10:56 51.56455 6.58927 30804 ft 495 kts 135°
2026-04-17 10:57 51.54160 6.63061 31097 ft 497 kts 135°
2026-04-17 10:57 51.51851 6.67214 31416 ft 499 kts 135°
2026-04-17 10:57 51.49540 6.71364 31780 ft 499 kts 136°
2026-04-17 10:57 51.47226 6.75513 32161 ft 499 kts 136°
2026-04-17 10:58 51.44910 6.79658 32538 ft 499 kts 136°
2026-04-17 10:58 51.42586 6.83785 32888 ft 498 kts 138°
2026-04-17 10:58 51.40079 6.87564 33243 ft 493 kts 146°
2026-04-17 10:58 51.37338 6.90801 33596 ft 487 kts 153°
2026-04-17 10:59 51.34505 6.93637 33958 ft 485 kts 154°
2026-04-17 10:59 51.31642 6.96499 34299 ft 485 kts 154°
2026-04-17 10:59 51.28826 6.99320 34615 ft 484 kts 153°
2026-04-17 10:59 51.25941 7.02212 34928 ft 482 kts 153°
2026-04-17 11:00 51.23138 7.05021 35165 ft 481 kts 153°
2026-04-17 11:00 51.17572 7.10584 35231 ft 480 kts 153°
2026-04-17 11:01 51.11916 7.16223 35230 ft 480 kts 153°
2026-04-17 11:01 51.06260 7.21845 35232 ft 479 kts 153°
2026-04-17 11:02 51.00566 7.27490 35232 ft 480 kts 153°
2026-04-17 11:02 50.94937 7.33055 35234 ft 480 kts 153°
2026-04-17 11:03 50.89271 7.38639 35231 ft 480 kts 153°
2026-04-17 11:03 50.83605 7.44209 35227 ft 479 kts 153°
2026-04-17 11:04 50.77935 7.49766 35227 ft 479 kts 153°
2026-04-17 11:04 50.72263 7.55309 35226 ft 479 kts 153°
2026-04-17 11:05 50.67560 7.60094 35229 ft 481 kts 151°
2026-04-17 11:05 50.61989 7.65930 35230 ft 481 kts 151°
2026-04-17 11:05 50.59212 7.68819 35558 ft 476 kts 151°
2026-04-17 11:06 50.56457 7.71672 35967 ft 473 kts 151°
2026-04-17 11:06 50.53703 7.74511 36112 ft 475 kts 151°
2026-04-17 11:06 50.50918 7.77372 35987 ft 480 kts 151°
2026-04-17 11:06 50.48130 7.80234 35736 ft 479 kts 151°
2026-04-17 11:07 50.45348 7.83089 35479 ft 478 kts 151°
2026-04-17 11:07 50.42563 7.85941 35268 ft 479 kts 151°
2026-04-17 11:07 50.39768 7.88798 35226 ft 480 kts 151°
2026-04-17 11:08 50.34168 7.94512 35224 ft 481 kts 151°
2026-04-17 11:08 50.28568 8.00211 35233 ft 481 kts 151°
2026-04-17 11:09 50.22959 8.05902 35218 ft 480 kts 151°
2026-04-17 11:09 50.17344 8.11582 35220 ft 481 kts 151°
2026-04-17 11:10 50.11475 8.16425 35215 ft 474 kts 163°
2026-04-17 11:10 50.08381 8.18119 35214 ft 471 kts 167°
2026-04-17 11:10 50.02141 8.21267 35213 ft 472 kts 166°
2026-04-17 11:11 49.95903 8.24441 35216 ft 472 kts 166°
2026-04-17 11:11 49.89658 8.27621 35217 ft 473 kts 166°
2026-04-17 11:12 49.83382 8.30622 35217 ft 469 kts 173°
2026-04-17 11:12 49.76961 8.31671 35215 ft 464 kts 180°
2026-04-17 11:13 49.73746 8.32060 35062 ft 464 kts 180°
2026-04-17 11:13 49.70524 8.32433 34831 ft 464 kts 181°
2026-04-17 11:13 49.67300 8.32796 34577 ft 465 kts 181°
2026-04-17 11:13 49.64076 8.33154 34338 ft 465 kts 181°
2026-04-17 11:14 49.60848 8.33511 34078 ft 466 kts 181°
2026-04-17 11:14 49.57608 8.33868 33795 ft 466 kts 180°
2026-04-17 11:14 49.54367 8.34225 33519 ft 467 kts 180°
2026-04-17 11:14 49.51134 8.34582 33238 ft 467 kts 180°
2026-04-17 11:15 49.47887 8.34940 32914 ft 467 kts 180°
2026-04-17 11:15 49.44647 8.35297 32609 ft 467 kts 180°
2026-04-17 11:15 49.41399 8.35654 32319 ft 468 kts 180°
2026-04-17 11:15 49.38164 8.36010 32035 ft 465 kts 180°
2026-04-17 11:16 49.34942 8.36364 31720 ft 462 kts 180°
2026-04-17 11:16 49.31742 8.36716 31411 ft 460 kts 180°
2026-04-17 11:16 49.28567 8.37063 31106 ft 457 kts 180°
2026-04-17 11:16 49.25393 8.37410 30801 ft 455 kts 180°
2026-04-17 11:17 49.22241 8.37754 30505 ft 453 kts 180°
2026-04-17 11:17 49.19103 8.38096 30194 ft 451 kts 180°
2026-04-17 11:17 49.15984 8.38435 29843 ft 449 kts 180°
2026-04-17 11:17 49.12879 8.38772 29492 ft 446 kts 180°
2026-04-17 11:18 49.09803 8.39106 29158 ft 438 kts 180°
2026-04-17 11:18 49.06791 8.39436 28823 ft 429 kts 180°
2026-04-17 11:18 49.03846 8.39757 28494 ft 420 kts 180°
2026-04-17 11:18 49.00938 8.40070 28175 ft 420 kts 180°
2026-04-17 11:19 48.98014 8.40382 27854 ft 421 kts 180°
2026-04-17 11:19 48.95097 8.40695 27538 ft 419 kts 180°
2026-04-17 11:19 48.92196 8.41007 27225 ft 417 kts 180°
2026-04-17 11:19 48.89314 8.41318 26971 ft 414 kts 180°
2026-04-17 11:20 48.86449 8.41626 26713 ft 413 kts 180°
2026-04-17 11:20 48.83587 8.41933 26468 ft 412 kts 180°
2026-04-17 11:20 48.80774 8.42234 26210 ft 410 kts 179°
2026-04-17 11:20 48.77936 8.42538 25960 ft 408 kts 179°
2026-04-17 11:21 48.75076 8.42835 25657 ft 405 kts 178°
2026-04-17 11:21 48.72271 8.43132 25411 ft 403 kts 178°
2026-04-17 11:21 48.69482 8.43430 25169 ft 401 kts 178°
2026-04-17 11:21 48.66697 8.43727 24924 ft 401 kts 178°
2026-04-17 11:22 48.63925 8.44022 24685 ft 399 kts 178°
2026-04-17 11:22 48.61160 8.44317 24458 ft 398 kts 178°
2026-04-17 11:22 48.58399 8.44611 24224 ft 397 kts 178°
2026-04-17 11:22 48.55654 8.44902 23988 ft 395 kts 178°
2026-04-17 11:23 48.52914 8.45193 23751 ft 394 kts 178°
2026-04-17 11:23 48.50189 8.45483 23478 ft 392 kts 178°
2026-04-17 11:23 48.47472 8.45771 23202 ft 390 kts 178°
2026-04-17 11:23 48.44770 8.46058 22933 ft 388 kts 178°
2026-04-17 11:24 48.42084 8.46343 22670 ft 387 kts 178°
2026-04-17 11:24 48.39408 8.46625 22402 ft 385 kts 178°
2026-04-17 11:24 48.36745 8.46906 22112 ft 383 kts 178°
2026-04-17 11:24 48.34081 8.47187 21620 ft 383 kts 178°
2026-04-17 11:25 48.31428 8.47467 21100 ft 381 kts 178°
2026-04-17 11:25 48.28798 8.47744 20622 ft 378 kts 178°
2026-04-17 11:25 48.26182 8.48020 20113 ft 375 kts 178°
2026-04-17 11:25 48.23589 8.48293 19616 ft 373 kts 178°
2026-04-17 11:26 48.21003 8.48565 19072 ft 372 kts 177°
2026-04-17 11:26 48.18424 8.48835 18536 ft 371 kts 177°
2026-04-17 11:26 48.15853 8.49103 17923 ft 370 kts 177°
2026-04-17 11:26 48.13291 8.49371 17322 ft 369 kts 177°
2026-04-17 11:27 48.10733 8.49638 16731 ft 368 kts 177°
2026-04-17 11:27 48.08186 8.49903 16151 ft 366 kts 177°
2026-04-17 11:27 48.05645 8.50168 15576 ft 365 kts 177°
2026-04-17 11:27 48.03118 8.50431 15007 ft 361 kts 177°
2026-04-17 11:28 48.00644 8.50687 14460 ft 352 kts 177°
2026-04-17 11:28 47.98233 8.50939 13909 ft 344 kts 177°
2026-04-17 11:28 47.95870 8.51179 13305 ft 337 kts 179°
2026-04-17 11:28 47.93557 8.51073 12714 ft 329 kts 188°
2026-04-17 11:29 47.91310 8.50475 12136 ft 329 kts 193°
2026-04-17 11:29 47.89820 8.50010 11755 ft 330 kts 193°
2026-04-17 11:29 47.89116 8.49792 11587 ft 331 kts 193°
2026-04-17 11:29 47.86856 8.49099 11004 ft 333 kts 193°
2026-04-17 11:30 47.84595 8.48413 10455 ft 328 kts 193°
2026-04-17 11:30 47.82381 8.47740 9891 ft 322 kts 193°
2026-04-17 11:30 47.80207 8.47064 9281 ft 316 kts 196°
2026-04-17 11:30 47.78272 8.45657 8687 ft 308 kts 219°
2026-04-17 11:31 47.76688 8.43562 8119 ft 302 kts 223°
2026-04-17 11:31 47.75233 8.41343 7522 ft 297 kts 236°
2026-04-17 11:31 47.74258 8.38665 6987 ft 293 kts 244°
2026-04-17 11:31 47.73375 8.35954 6402 ft 290 kts 244°
2026-04-17 11:32 47.72505 8.33268 5824 ft 288 kts 244°
2026-04-17 11:32 47.71634 8.30618 5349 ft 282 kts 239°
2026-04-17 11:32 47.70346 8.28492 4954 ft 275 kts 212°
2026-04-17 11:32 47.68588 8.27668 4540 ft 262 kts 177°
2026-04-17 11:33 47.66888 8.28393 4186 ft 255 kts 148°
2026-04-17 11:33 47.65489 8.29901 3984 ft 240 kts 137°
2026-04-17 11:33 47.64276 8.31552 3952 ft 235 kts 135°
2026-04-17 11:33 47.63124 8.33147 3970 ft 220 kts 135°
2026-04-17 11:34 47.62021 8.34668 3970 ft 211 kts 135°
2026-04-17 11:34 47.60959 8.36136 3963 ft 208 kts 136°
2026-04-17 11:34 47.59923 8.37549 3992 ft 196 kts 136°
2026-04-17 11:34 47.58932 8.38912 3970 ft 195 kts 136°
2026-04-17 11:35 47.57937 8.40281 4014 ft 197 kts 136°
2026-04-17 11:35 47.56920 8.41672 3725 ft 199 kts 135°
2026-04-17 11:35 47.55924 8.43043 3520 ft 195 kts 135°
2026-04-17 11:35 47.54964 8.44351 3243 ft 183 kts 135°
2026-04-17 11:36 47.54055 8.45609 3009 ft 171 kts 135°
2026-04-17 11:36 47.53206 8.46769 2791 ft 161 kts 136°
2026-04-17 11:36 47.52416 8.47849 2577 ft 150 kts 135°
2026-04-17 11:36 47.51669 8.48874 2389 ft 141 kts 135°
2026-04-17 11:37 47.50961 8.49842 2191 ft 139 kts 135°
2026-04-17 11:37 47.50245 8.50824 1994 ft 140 kts 135°
2026-04-17 11:37 47.49538 8.51790 1793 ft 139 kts 135°
2026-04-17 11:37 47.48834 8.52739 1606 ft 137 kts 135°
2026-04-17 11:38 47.48138 8.53688 1481 ft 136 kts 133°
2026-04-17 11:38 47.47462 8.54603 1417 ft 137 kts 130°
2026-04-17 11:38 47.46863 8.55465 1393 ft 77 kts 137°
2026-04-17 11:38 47.46632 8.55778 1403 ft 35 kts 139°
2026-04-17 11:39 47.46429 8.55934 1402 ft 24 kts 160°
2026-04-17 11:39 47.46329 8.55973 1402 ft 6 kts 165°
2026-04-17 11:39 47.46287 8.55990 1406 ft 7 kts 165°
2026-04-17 11:39 47.46240 8.56007 1406 ft 7 kts 167°
2026-04-17 11:40 47.46188 8.56001 1408 ft 12 kts 185°
2026-04-17 11:40 47.46051 8.55989 1407 ft 22 kts 183°
2026-04-17 11:40 47.45908 8.55943 1407 ft 20 kts 198°
2026-04-17 11:40 47.45793 8.55884 1415 ft 17 kts 195°
2026-04-17 11:41 47.45680 8.55864 1408 ft 14 kts 182°
2026-04-17 11:41 47.45585 8.55851 1410 ft 12 kts 186°
2026-04-17 11:41 47.45507 8.55794 1410 ft 12 kts 256°
2026-04-17 11:41 47.45514 8.55654 1407 ft 15 kts 277°
2026-04-17 11:42 47.45525 8.55493 1407 ft 15 kts 267°
2026-04-17 11:42 47.45458 8.55440 1409 ft 12 kts 157°
2026-04-17 11:42 47.45382 8.55503 1407 ft 13 kts 155°
2026-04-17 11:42 47.45300 8.55563 1413 ft 14 kts 148°
2026-04-17 11:43 47.45267 8.55689 1406 ft 14 kts 95°
2026-04-17 11:43 47.45259 8.55811 1406 ft 9 kts 95°
2026-04-17 11:43 47.45275 8.55881 1411 ft 6 kts 86°
2026-04-17 11:43 47.45285 8.55926 1406 ft 7 kts 50°
2026-04-17 11:44 47.45324 8.55942 1410 ft 1 kts
2026-04-17 11:44 47.45333 8.55943 1411 ft 1 kts
2026-04-17 11:44 47.45335 8.55944 1410 ft 0 kts